Location: Arbon
(43.0005°N, 0.7472°E)
Time: 08:15:46
(UTC+00:00)

A-11 Canister half - Pass Details

Date: 04 December 2020
Orbit: 1517 x 1683 km, 47.2° (Epoch: 22 January)

Event Time Altitude Azimuth Distance (km) Brightness Sun altitude
Rises 18:56:51 0° 285° (WNW) 4,935 12.7 -27.5°
Reaches altitude 10° 19:03:39 10° 253° (WSW) 3,942 12.0 -28.7°
Maximum altitude 19:05:55 11° 240° (WSW) 3,861 11.8 -29.1°
Drops below altitude 10° 19:08:11 10° 227° (SW) 3,930 11.7 -29.5°
Sets 19:14:59 0° 195° (SSW) 4,886 11.8 -30.8°
